Location: Usti nad Orlici
(49.9830°N, 16.4000°E)
Time: 20:08:32
(UTC+01:00)

ISS - Visible Passes

Search period start: 24 March 2019 00:00
Search period end: 03 April 2019 01:00
Orbit: 408 x 411 km, 51.6° (Epoch: 24 March)

Date Brightness Start Highest point End Pass type
(mag) Time Alt. Az. Time Alt. Az. Time Alt. Az.
24 Mar -3.5 19:32:34 10° SW 19:35:45 48° SSE 19:37:09 28° E visible
24 Mar -1.1 21:09:02 10° W 21:09:56 17° W 21:09:56 17° W visible
25 Mar -2.9 18:42:13 10° SSW 18:45:13 32° SSE 18:48:14 10° E visible
25 Mar -3.8 20:18:19 10° W 20:21:38 79° NNW 20:21:38 79° NNW visible
26 Mar -3.9 19:27:39 10° WSW 19:30:58 82° SSE 19:33:13 19° ENE visible
26 Mar -1.6 21:04:23 10° W 21:05:59 26° WNW 21:05:59 26° WNW visible
27 Mar -3.5 20:13:39 10° W 20:16:56 64° N 20:17:27 53° NE visible
28 Mar -3.6 19:22:54 10° W 19:26:12 72° N 19:28:52 15° ENE visible
28 Mar -2.1 20:59:38 10° WNW 21:01:37 33° WNW 21:01:37 33° WNW visible
29 Mar -3.6 20:08:55 10° WNW 20:12:12 64° N 20:12:58 46° ENE visible
29 Mar -0.5 21:45:33 10° WNW 21:45:43 11° WNW 21:45:43 11° WNW visible
30 Mar -3.5 19:18:08 10° W 19:21:26 63° N 19:24:16 13° E visible
30 Mar -2.5 20:54:49 10° WNW 20:57:01 38° WNW 20:57:01 38° WNW visible
31 Mar -3.8 21:04:05 10° WNW 21:07:24 79° NNE 21:08:18 45° E visible
31 Mar -0.6 22:40:49 10° W 22:41:03 11° W 22:41:03 11° W visible
01 Apr -3.6 20:13:19 10° WNW 20:16:38 68° N 20:19:35 12° E visible
01 Apr -2.6 21:49:58 10° WNW 21:52:20 37° WSW 21:52:20 37° WSW visible
02 Apr -3.8 20:59:11 10° WNW 21:02:29 69° SSW 21:03:36 37° SE visible
